Main page
METAR-TAF:

METAR-TAF

Airports :

Oil platform

A12-cpp, Netherlands

latitude: 55-23-57N, longitude: 3-48-37E, elevation: 33 m

Current weather observation

The report was made 35 minutes ago, at 22:55 UTC
Wind 26 kt from the West
Temperature 13°C
Humidity 77%
Pressure 1008 hPa
Visibility 10 km or more

METAR: EHAK 252255Z AUTO 26026KT 9999 NCD 13/09 Q1008

Time: 01:30 (23:30 UTC)


TAF: missing

Weather observations and forecasts of more than 4000 airports (METAR and TAF reports).

The available stations are represented by yellow and red dots on the map.

Hover mouse over dot to see the name of the station.

Then click to see weather observations and forecasts.

To change the map : click on the green buttons with a black cross to zoom in, on the green button with a dash to zoom out, or on the green arrows for adjacent maps.


METAR-TAF: